When you browse on this site, cookies collect data to enhance your experience and personalize the content and advertising you see.
Visit our Privacy Policy to learn more. By continuing to use the site, you agree to this use of cookies and data.
  • In Hungary
  • List of Countries
  • For 7 days
  • Water Temperature
  • Satellite Maps
  • Weather Map
  • News
  • Weather Widgets
  • user-avatar
    Login

    Hourly Weather Cataratas del Iguazù

    Today, 24 March, Sunday

    Time Temperature Precipitation Wind Pressure Humidity
    00:00 +22°C° 0 mm 1 mps 740 mmHg 79%
    01:00 +20°C° 0 mm 0 mps 741 mmHg 82%
    02:00 +19°C° 0 mm 0 mps 741 mmHg 85%
    03:00 +19°C° 0 mm 0 mps 741 mmHg 86%
    04:00 +19°C° 0 mm 0 mps 741 mmHg 86%
    05:00 +19°C° 0 mm 0 mps 741 mmHg 86%
    06:00 +21°C° 0 mm 0 mps 741 mmHg 78%
    07:00 +23°C° 0 mm 0 mps 742 mmHg 70%
    08:00 +25°C° 0 mm 0 mps 742 mmHg 63%
    09:00 +29°C° 0 mm 1 mps 742 mmHg 55%
    10:00 +32°C° 0 mm 1 mps 742 mmHg 46%
    11:00 +34°C° 0 mm 1 mps 742 mmHg 38%
    12:00 +35°C° 0 mm 2 mps 742 mmHg 37%
    13:00 +36°C° 0 mm 2 mps 741 mmHg 37%
    14:00 +36°C° 0 mm 2 mps 741 mmHg 36%
    15:00 +33°C° 0 mm 1 mps 740 mmHg 41%
    16:00 +32°C° 0 mm 1 mps 740 mmHg 46%
    17:00 +31°C° 0 mm 1 mps 739 mmHg 51%
    18:00 +29°C° 0 mm 1 mps 740 mmHg 57%
    19:00 +27°C° 0 mm 1 mps 740 mmHg 62%
    20:00 +23°C° 0 mm 0 mps 740 mmHg 68%
    21:00 +23°C° 0 mm 0 mps 740 mmHg 70%
    22:00 +24°C° 0 mm 1 mps 740 mmHg 73%
    23:00 +23°C° 0 mm 1 mps 740 mmHg 75%

    Tomorrow, 25 March, Monday

    Time Temperature Precipitation Wind Pressure Humidity
    00:00 +22°C° 0 mm 1 mps 740 mmHg 78%
    01:00 +22°C° 0 mm 1 mps 740 mmHg 81%
    02:00 +21°C° 0 mm 1 mps 740 mmHg 84%
    03:00 +21°C° 0 mm 1 mps 740 mmHg 85%
    04:00 +21°C° 0 mm 1 mps 740 mmHg 87%
    05:00 +20°C° 0 mm 1 mps 740 mmHg 89%
    06:00 +23°C° 0 mm 1 mps 741 mmHg 81%
    07:00 +25°C° 0 mm 1 mps 741 mmHg 72%
    08:00 +27°C° 0 mm 1 mps 742 mmHg 63%
    09:00 +29°C° 0 mm 1 mps 741 mmHg 55%
    10:00 +31°C° 0 mm 1 mps 741 mmHg 46%
    11:00 +34°C° 0 mm 1 mps 741 mmHg 38%
    12:00 +34°C° 0 mm 1 mps 741 mmHg 35%
    13:00 +35°C° 0 mm 1 mps 740 mmHg 32%
    14:00 +35°C° 0 mm 1 mps 739 mmHg 29%
    15:00 +34°C° 0 mm 1 mps 739 mmHg 32%
    16:00 +33°C° 0 mm 1 mps 739 mmHg 36%
    17:00 +31°C° 0 mm 1 mps 739 mmHg 39%
    18:00 +30°C° 0 mm 1 mps 739 mmHg 42%
    19:00 +28°C° 0 mm 1 mps 739 mmHg 45%
    20:00 +26°C° 0 mm 1 mps 740 mmHg 48%
    21:00 +25°C° 0 mm 1 mps 740 mmHg 54%
    22:00 +24°C° 0 mm 1 mps 741 mmHg 59%
    23:00 +23°C° 0 mm 1 mps 741 mmHg 64%

    Day after tomorrow, 26 March, Tuesday

    Time Temperature Precipitation Wind Pressure Humidity
    00:00 +22°C° 0 mm 1 mps 741 mmHg 68%
    01:00 +21°C° 0 mm 1 mps 741 mmHg 71%
    02:00 +20°C° 0 mm 1 mps 740 mmHg 75%
    03:00 +19°C° 0 mm 1 mps 741 mmHg 76%
    04:00 +18°C° 0 mm 1 mps 741 mmHg 78%
    05:00 +18°C° 0 mm 1 mps 741 mmHg 80%
    06:00 +20°C° 0 mm 1 mps 741 mmHg 72%
    07:00 +21°C° 0 mm 1 mps 742 mmHg 64%
    08:00 +23°C° 0 mm 1 mps 742 mmHg 57%
    09:00 +26°C° 0 mm 1 mps 742 mmHg 46%
    10:00 +29°C° 0 mm 1 mps 742 mmHg 36%
    11:00 +32°C° 0 mm 1 mps 743 mmHg 25%
    12:00 +33°C° 0 mm 1 mps 742 mmHg 23%
    13:00 +35°C° 0 mm 2 mps 741 mmHg 21%
    14:00 +36°C° 0 mm 2 mps 741 mmHg 18%
    15:00 +34°C° 0 mm 2 mps 741 mmHg 22%
    16:00 +32°C° 0 mm 2 mps 741 mmHg 26%
    17:00 +31°C° 0 mm 2 mps 740 mmHg 29%
    18:00 +29°C° 0 mm 2 mps 741 mmHg 33%
    19:00 +27°C° 0 mm 2 mps 741 mmHg 37%
    20:00 +25°C° 0 mm 2 mps 742 mmHg 41%
    21:00 +23°C° 0 mm 2 mps 742 mmHg 48%
    22:00 +22°C° 0 mm 1 mps 743 mmHg 55%
    23:00 +21°C° 0 mm 1 mps 743 mmHg 63%

    27 March, Wednesday

    Time Temperature Precipitation Wind Pressure Humidity
    00:00 +20°C° 0 mm 1 mps 743 mmHg 68%
    01:00 +19°C° 0 mm 1 mps 742 mmHg 73%
    02:00 +18°C° 0 mm 1 mps 742 mmHg 78%
    03:00 +16°C° 0 mm 1 mps 742 mmHg 80%
    04:00 +16°C° 0 mm 1 mps 742 mmHg 83%
    05:00 +15°C° 0 mm 1 mps 742 mmHg 86%
    06:00 +18°C° 0 mm 1 mps 743 mmHg 77%
    07:00 +21°C° 0 mm 1 mps 743 mmHg 68%
    08:00 +23°C° 0 mm 1 mps 744 mmHg 60%
    09:00 +26°C° 0 mm 1 mps 744 mmHg 52%
    10:00 +30°C° 0 mm 1 mps 744 mmHg 45%
    11:00 +34°C° 0 mm 1 mps 744 mmHg 38%
    12:00 +33°C° 0 mm 0 mps 743 mmHg 35%
    13:00 +34°C° 0 mm 0 mps 743 mmHg 31%
    14:00 +35°C° 0 mm 0 mps 742 mmHg 28%
    15:00 +33°C° 0 mm 0 mps 742 mmHg 32%
    16:00 +31°C° 0 mm 0 mps 742 mmHg 36%
    17:00 +32°C° 0 mm 1 mps 742 mmHg 41%
    18:00 +30°C° 0 mm 1 mps 742 mmHg 44%
    19:00 +28°C° 0 mm 1 mps 743 mmHg 48%
    20:00 +27°C° 0 mm 1 mps 743 mmHg 51%
    21:00 +26°C° 0 mm 1 mps 743 mmHg 58%
    22:00 +24°C° 0 mm 1 mps 743 mmHg 64%
    23:00 +23°C° 0 mm 1 mps 743 mmHg 70%

    28 March, Thursday

    Time Temperature Precipitation Wind Pressure Humidity
    00:00 +23°C° 0 mm 1 mps 743 mmHg 72%
    01:00 +23°C° 0 mm 1 mps 743 mmHg 75%
    02:00 +23°C° 0 mm 2 mps 743 mmHg 78%
    03:00 +23°C° 0 mm 2 mps 743 mmHg 78%
    04:00 +23°C° 0 mm 2 mps 744 mmHg 78%
    05:00 +23°C° 0 mm 2 mps 744 mmHg 78%
    06:00 +24°C° 0 mm 2 mps 745 mmHg 73%
    07:00 +25°C° 0 mm 2 mps 745 mmHg 67%
    08:00 +26°C° 0 mm 2 mps 746 mmHg 61%
    09:00 +28°C° 0 mm 2 mps 746 mmHg 54%
    10:00 +30°C° 0 mm 2 mps 746 mmHg 48%
    11:00 +32°C° 0 mm 2 mps 746 mmHg 41%
    12:00 +34°C° 0 mm 2 mps 745 mmHg 39%
    13:00 +35°C° 0 mm 2 mps 744 mmHg 37%
    14:00 +35°C° 0 mm 1 mps 744 mmHg 34%
    15:00 +33°C° 0 mm 1 mps 743 mmHg 39%
    16:00 +32°C° 0 mm 1 mps 743 mmHg 44%
    17:00 +29°C° 0 mm 0 mps 743 mmHg 48%
    18:00 +27°C° 0 mm 0 mps 743 mmHg 53%
    19:00 +25°C° 0 mm 0 mps 743 mmHg 57%
    20:00 +24°C° 0 mm 0 mps 744 mmHg 62%
    21:00 +25°C° 0 mm 1 mps 744 mmHg 65%
    22:00 +25°C° 0 mm 1 mps 744 mmHg 67%
    23:00 +24°C° 0 mm 1 mps 744 mmHg 70%

    29 March, Friday

    Time Temperature Precipitation Wind Pressure Humidity
    00:00 +24°C° 0 mm 1 mps 744 mmHg 70%
    01:00 +24°C° 0 mm 1 mps 744 mmHg 71%
    02:00 +24°C° 0 mm 2 mps 744 mmHg 71%
    03:00 +23°C° 0 mm 2 mps 744 mmHg 72%
    04:00 +23°C° 0 mm 2 mps 744 mmHg 73%
    05:00 +21°C° 0 mm 2 mps 744 mmHg 74%
    06:00 +23°C° 0 mm 2 mps 745 mmHg 70%
    07:00 +24°C° 0 mm 2 mps 745 mmHg 66%
    08:00 +25°C° 0 mm 2 mps 745 mmHg 61%
    09:00 +27°C° 0 mm 2 mps 745 mmHg 53%
    10:00 +29°C° 0 mm 2 mps 745 mmHg 45%
    11:00 +32°C° 0 mm 2 mps 745 mmHg 37%
    12:00 +34°C° 0 mm 2 mps 744 mmHg 35%
    13:00 +35°C° 0 mm 2 mps 743 mmHg 33%
    14:00 +35°C° 0 mm 1 mps 742 mmHg 31%
    15:00 +33°C° 0 mm 1 mps 742 mmHg 35%
    16:00 +32°C° 0 mm 1 mps 741 mmHg 39%
    17:00 +31°C° 0 mm 1 mps 741 mmHg 43%
    18:00 +29°C° 0 mm 1 mps 741 mmHg 49%
    19:00 +27°C° 0 mm 1 mps 741 mmHg 54%
    20:00 +25°C° 0 mm 1 mps 741 mmHg 60%
    21:00 +25°C° 0 mm 1 mps 742 mmHg 64%
    22:00 +22°C° 0 mm 0 mps 742 mmHg 67%
    23:00 +21°C° 0 mm 0 mps 742 mmHg 71%
    Show more